Change the Weather History Date:

Thursday, October 4, 2012

  Actual Average Record
Temperature  
Mean Temperature 66 °F -  
Max Temperature 73 °F 64 °F 82 °F (1997)
Min Temperature 61 °F 50 °F 32 °F (1996)
Cooling Degree Days 2    
Growing Degree Days 16 (Base 50)    
Moisture  
Dew Point 53 °F    
Average Humidity 66    
Maximum Humidity 75    
Minimum Humidity 54    
Precipitation  
Precipitation 0.00 in - - ()
Sea Level Pressure  
Sea Level Pressure 30.10 in    
Wind  
Wind Speed 8 mph (SSW)    
Max Wind Speed 16 mph    
Max Gust Speed 21 mph    
Visibility 10 miles    
Events      
Averages and records for this station are not official NWS values.
T = Trace of Precipitation, MM = Missing Value Source: NWS Daily Summary

Daily Weather History Graph

Daily Weather History Graph

Search for Another Location

Airport or City:

Trip Planner

Search our weather history database for the weather conditions in past years. The results will help you decide how hot, cold, wet, or windy it might be!

Date:

Astronomy

Oct. 04, 2012 Rise Set
Actual Time 7:27 AM EDT 7:02 PM EDT
Civil Twilight 6:59 AM EDT 7:30 PM EDT
Nautical Twilight 6:27 AM EDT 8:02 PM EDT
Astronomical Twilight 5:55 AM EDT 8:34 PM EDT
Moon 9:34 PM EDT 11:46 AM EDT
Length of Visible Light 12h 30m
Length of Day
11h 35m
Waning Gibbous, 82% of the Moon is Illuminated
Oct 4
Waning Gibbous
Oct 8
Last Quarter
Oct 15
New
Oct 21
First Quarter
Oct 29
Full

Hourly Weather History & Observations

Time (EDT) Temp. Dew Point Humidity Pressure Visibility Wind Dir Wind Speed Gust Speed Precip Events Conditions
12:53 AM 61.0 °F 53.1 °F 75% 30.12 in 10.0 mi SSE 6.9 mph - N/A   Clear
1:53 AM 62.1 °F 53.1 °F 72% 30.12 in 10.0 mi South 8.1 mph - N/A   Clear
2:53 AM 62.1 °F 53.1 °F 72% 30.12 in 10.0 mi SSE 8.1 mph - N/A   Clear
3:53 AM 61.0 °F 53.1 °F 75% 30.12 in 10.0 mi South 8.1 mph - N/A   Clear
4:53 AM 62.1 °F 52.0 °F 70% 30.11 in 10.0 mi South 8.1 mph - N/A   Clear
5:53 AM 62.1 °F 52.0 °F 70% 30.11 in 10.0 mi South 9.2 mph - N/A   Clear
6:53 AM 61.0 °F 52.0 °F 72% 30.13 in 10.0 mi South 6.9 mph - N/A   Clear
7:53 AM 61.0 °F 51.1 °F 70% 30.13 in 10.0 mi South 10.4 mph - N/A   Clear
8:53 AM 61.0 °F 51.1 °F 70% 30.14 in 10.0 mi South 9.2 mph 18.4 mph N/A   Clear
9:53 AM 64.9 °F 52.0 °F 63% 30.13 in 10.0 mi South 10.4 mph - N/A   Clear
10:53 AM 69.1 °F 52.0 °F 54% 30.13 in 10.0 mi SW 6.9 mph 16.1 mph N/A   Clear
11:53 AM 71.1 °F 54.0 °F 55% 30.12 in 10.0 mi SW 11.5 mph 20.7 mph N/A   Clear
12:53 PM 72.0 °F 55.0 °F 55% 30.12 in 10.0 mi SW 16.1 mph - N/A   Clear
1:53 PM 70.0 °F 54.0 °F 57% 30.10 in 10.0 mi WSW 12.7 mph - N/A   Scattered Clouds
2:53 PM 66.0 °F 57.9 °F 75% 30.10 in 10.0 mi WNW 9.2 mph - N/A   Mostly Cloudy
3:53 PM 68.0 °F 59.0 °F 73% 30.09 in 10.0 mi WSW 5.8 mph - N/A   Overcast
4:53 PM 69.1 °F 57.9 °F 68% 30.09 in 10.0 mi West 6.9 mph - N/A   Clear
6:53 PM 66.9 °F 53.1 °F 61% 30.08 in 10.0 mi SW 6.9 mph - N/A   Clear
7:53 PM 69.1 °F 53.1 °F 57% 30.08 in 10.0 mi South 6.9 mph - N/A   Clear
8:53 PM 66.9 °F 53.1 °F 61% 30.07 in 10.0 mi SSE 6.9 mph - N/A   Clear
9:53 PM 66.0 °F 52.0 °F 60% 30.06 in 10.0 mi South 8.1 mph - N/A   Clear
10:53 PM 64.9 °F 52.0 °F 63% 30.06 in 10.0 mi South 9.2 mph - N/A   Clear
11:53 PM 64.9 °F 53.1 °F 65% 30.06 in 10.0 mi South 10.4 mph - N/A   Clear